Weather History for KIMT - November, 2012

Change the Weather History Date:

Sunday, November 18, 2012

  Actual Average Record
Temperature  
Mean Temperature 38 °F -  
Max Temperature 50 °F 40 °F 69 °F (1953)
Min Temperature 27 °F 23 °F 4 °F (1959)
Degree Days  
Heating Degree Days 26    
Moisture  
Dew Point 32 °F    
Average Humidity 90    
Maximum Humidity 100    
Minimum Humidity 54    
Precipitation  
Precipitation 0.00 in - - ()
Sea Level Pressure  
Sea Level Pressure 30.36 in    
Wind  
Wind Speed 5 mph (SE)    
Max Wind Speed 12 mph    
Max Gust Speed 18 mph    
Visibility 3 miles    
Events Fog    
Averages and records for this station are not official NWS values.
T = Trace of Precipitation, MM = Missing Value Source: NWS Daily Summary

Daily Weather History Graph

Daily Weather History Graph

Search for Another Location

Airport or City:

Trip Planner

Search our weather history database for the weather conditions in past years. The results will help you decide how hot, cold, wet, or windy it might be!

Date:

Astronomy

Nov. 18, 2012 Rise Set
Actual Time 6:57 AM CST 4:17 PM CST
Civil Twilight 6:24 AM CST 4:50 PM CST
Nautical Twilight 5:48 AM CST 5:26 PM CST
Astronomical Twilight 5:12 AM CST 6:02 PM CST
Moon 11:20 AM CST (11/18) 9:41 PM CST (11/18)
Length of Visible Light 10h 25m
Length of Day
9h 20m
Waxing Crescent, 30% of the Moon is Illuminated
Nov 18
Waxing Crescent
Nov 20
First Quarter
Nov 28
Full
Dec 6
Last Quarter
Dec 13
New

Hourly Weather History & Observations

Time (CST) Temp. Windchill Dew Point Humidity Pressure Visibility Wind Dir Wind Speed Gust Speed Precip Events Conditions
12:20 AM 30.2 °F 26.7 °F 30.2 °F 100% 30.38 in 0.2 mi SE 3.5 mph - N/A Fog Light Freezing Fog
12:29 AM 30.2 °F 26.7 °F 28.4 °F 93% 30.38 in 0.5 mi SE 3.5 mph - N/A Fog Light Freezing Fog
12:54 AM 28.9 °F 25.2 °F 28.0 °F 96% 30.43 in 0.5 mi SE 3.5 mph - N/A Fog Light Freezing Fog
1:04 AM 28.4 °F - 28.4 °F 100% 30.38 in 0.5 mi Calm Calm - N/A Fog Light Freezing Fog
1:36 AM 28.4 °F - 26.6 °F 93% 30.38 in 1.2 mi Calm Calm - N/A   Partly Cloudy
1:54 AM 27.0 °F - 25.0 °F 92% 30.42 in 1.0 mi Calm Calm - N/A   Clear
2:14 AM 28.4 °F 24.6 °F 28.4 °F 100% 30.38 in 2.5 mi SE 3.5 mph - N/A   Clear
2:54 AM 28.9 °F 25.2 °F 28.0 °F 96% 30.42 in 2.0 mi SE 3.5 mph - N/A   Clear
3:54 AM 28.9 °F 23.9 °F 28.0 °F 96% 30.41 in 1.8 mi SE 4.6 mph - N/A   Clear
4:43 AM 28.4 °F 22.2 °F 28.4 °F 100% 30.36 in 1.0 mi SE 5.8 mph - N/A   Mist
4:51 AM 28.4 °F 23.3 °F 28.4 °F 100% 30.36 in 0.5 mi SSE 4.6 mph - N/A Fog Light Freezing Fog
4:54 AM 28.9 °F 25.2 °F 28.0 °F 96% 30.41 in 0.2 mi SSE 3.5 mph - N/A Fog Light Freezing Fog
5:54 AM 28.9 °F 25.2 °F 28.0 °F 96% 30.40 in 0.2 mi SE 3.5 mph - N/A Fog Light Freezing Fog
6:35 AM 28.4 °F - 28.4 °F 100% 30.36 in 0.2 mi Calm Calm - N/A Fog Light Freezing Fog
6:54 AM 28.9 °F 25.2 °F 28.0 °F 96% 30.41 in 0.2 mi SE 3.5 mph - N/A Fog Light Freezing Fog
7:18 AM 28.4 °F 24.6 °F 28.4 °F 100% 30.36 in 0.2 mi SE 3.5 mph - N/A Fog Light Freezing Fog
7:54 AM 28.9 °F 23.9 °F 28.9 °F 100% 30.40 in 0.2 mi ESE 4.6 mph - N/A Fog Light Freezing Fog
8:54 AM 30.0 °F 24.1 °F 30.0 °F 100% 30.40 in 0.2 mi SE 5.8 mph - N/A Fog Light Freezing Fog
9:26 AM 30.2 °F 24.3 °F 30.2 °F 100% 30.35 in 0.2 mi SE 5.8 mph - N/A Fog Light Freezing Fog
9:46 AM 32.0 °F 25.6 °F 32.0 °F 100% 30.35 in 0.2 mi SE 6.9 mph - N/A Fog Fog
9:54 AM 32.0 °F 24.8 °F 32.0 °F 100% 30.40 in 0.2 mi SSE 8.1 mph - N/A Fog Fog
10:13 AM 33.8 °F 28.6 °F 33.8 °F 100% 30.35 in 0.8 mi SSE 5.8 mph - N/A   Overcast
10:36 AM 35.6 °F 30.7 °F 33.8 °F 93% 30.34 in 1.0 mi SE 5.8 mph - N/A   Mostly Cloudy
10:45 AM 37.4 °F 32.1 °F 35.6 °F 93% 30.34 in 1.2 mi SE 6.9 mph - N/A   Scattered Clouds
10:54 AM 37.9 °F 32.7 °F 36.0 °F 93% 30.38 in 1.8 mi SE 6.9 mph - N/A   Partly Cloudy
11:05 AM 37.4 °F 32.1 °F 35.6 °F 93% 30.33 in 2.0 mi SE 6.9 mph - N/A   Partly Cloudy
11:27 AM 41.0 °F 36.4 °F 35.6 °F 81% 30.33 in 3.0 mi SE 6.9 mph - N/A   Haze
11:54 AM 42.1 °F 37.1 °F 37.0 °F 82% 30.36 in 3.0 mi SSE 8.1 mph - N/A   Haze
12:54 PM 48.0 °F - 37.0 °F 66% 30.34 in 6.0 mi SE 9.2 mph - N/A   Haze
1:54 PM 50.0 °F - 34.0 °F 54% 30.33 in 9.0 mi SSE 11.5 mph 18.4 mph N/A   Clear
2:54 PM 48.9 °F - 35.1 °F 59% 30.31 in 10.0 mi SSE 6.9 mph - N/A   Clear
3:54 PM 48.0 °F - 34.0 °F 58% 30.30 in 10.0 mi SE 11.5 mph - N/A   Clear
5:54 PM 44.1 °F 39.5 °F 39.0 °F 82% 30.31 in 8.0 mi SSE 8.1 mph - N/A   Mostly Cloudy
6:54 PM 43.0 °F 37.7 °F 39.0 °F 86% 30.31 in 8.0 mi SSE 9.2 mph - N/A   Overcast
7:54 PM 43.0 °F 37.2 °F 37.9 °F 82% 30.31 in 8.0 mi SSE 10.4 mph - N/A   Overcast
8:54 PM 43.0 °F 38.2 °F 37.0 °F 80% 30.30 in 9.0 mi SE 8.1 mph - N/A   Overcast
9:54 PM 43.0 °F 39.5 °F 36.0 °F 76% 30.28 in 9.0 mi SE 5.8 mph - N/A   Overcast
11:54 PM 41.0 °F 36.4 °F 35.1 °F 79% 30.27 in 7.0 mi SSE 6.9 mph - N/A   Overcast